Home > Weather > Zwolle > Past weeks

Flag for Netherlands Past Weather in Zwolle, Netherlands — Yesterday and Last 2 Weeks

Now
86 °F

Passing clouds.


Feels Like: 89 °F
Forecast: 61 / 75 °F
Wind: 7 mph from South

Location: Amsterdam Schiphol Airport

Current Time: Aug 25, 2016 at 7:03:51 PM

Latest Report: Aug 25, 2016 at 6:25 PM


Visibility: N/A

Pressure: 29.92 "Hg

Humidity: 55%

Dew Point: 68 °F

Location of ZwolleLocation

Past Weather in Zwolle — Graph

°F

Zwolle Temperature Yesterday

Maximum temperature yesterday: 86 °F (at 3:25 PM)
Minimum temperature yesterday: 64 °F (at 5:25 AM)
Average temperature yesterday: 75 °F

High & Low Weather Summary for the Past Weeks

 TemperatureHumidityPressure
High88 °F (Aug 25, 3:55 PM)100% (Aug 11, 10:55 PM)30.30 "Hg (Aug 11, 10:55 PM)
Low48 °F (Aug 11, 12:25 AM)42% (Aug 23, 5:55 PM)29.74 "Hg (Aug 19, 3:55 PM)
Average65 °F78%30.06 "Hg
* Reported Aug 10 5:25 PM — Aug 25 5:55 PM, Zwolle, Weather by CustomWeather, © 2016

Note: Actual official high and low records may vary slightly from our data, if they occured in-between our weather recording intervals... More about our weather records

Advertising

Zwolle Weather History for the Previous 24 Hours

Scroll right to see more
 ConditionsComfort  
Time TempWeatherWind HumidityBarometerVisibility
5:55 PM
Thu, Aug 25
88 °FPassing clouds.8 mph49%29.92 "HgN/A
5:25 PM88 °FPassing clouds.8 mph52%29.92 "HgN/A
4:55 PM88 °FPassing clouds.8 mph52%29.95 "HgN/A
4:25 PM88 °FPassing clouds.9 mph52%29.95 "HgN/A
3:55 PM88 °FPassing clouds.9 mph52%29.95 "HgN/A
3:25 PM86 °FPassing clouds.8 mph55%29.95 "HgN/A
2:55 PM86 °FPassing clouds.9 mph52%29.95 "HgN/A
2:25 PM86 °FPassing clouds.9 mph52%29.95 "HgN/A
1:25 PM86 °FPassing clouds.7 mph52%29.98 "HgN/A
12:55 PM84 °FPassing clouds.10 mph55%29.98 "HgN/A
12:25 PM82 °FPassing clouds.12 mph58%29.98 "HgN/A
11:55 AM82 °FPassing clouds.10 mph55%29.98 "HgN/A
11:25 AM81 °FSunny.10 mph62%29.98 "Hg10 mi
10:55 AM79 °FSunny.9 mph65%29.98 "Hg10 mi
10:25 AM79 °FPassing clouds.8 mph70%30.01 "HgN/A
9:55 AM77 °FPassing clouds.6 mph69%30.01 "HgN/A
9:25 AM73 °FSunny.7 mph74%30.01 "Hg10 mi
8:55 AM72 °FSunny.5 mph78%30.01 "Hg10 mi
8:25 AM70 °FPassing clouds.3 mph83%30.01 "HgN/A
7:55 AM68 °FPassing clouds.3 mph83%30.01 "HgN/A
7:25 AM63 °FClear.1 mph88%30.01 "Hg10 mi
6:55 AM64 °FClear.5 mph88%30.01 "Hg10 mi
6:25 AM66 °FClear.3 mph83%30.01 "Hg10 mi
5:55 AM66 °FClear.3 mph83%30.01 "Hg10 mi
5:25 AM66 °FClear.5 mph83%30.01 "Hg10 mi
4:55 AM64 °FClear.5 mph88%30.01 "Hg10 mi
4:25 AM64 °FPassing clouds.3 mph88%30.01 "HgN/A
3:55 AM64 °FClear.6 mph88%30.01 "Hg10 mi
3:25 AM66 °FClear.6 mph83%30.04 "Hg10 mi
2:55 AM68 °FClear.5 mph78%30.04 "Hg10 mi
2:25 AM68 °FClear.3 mph78%30.04 "Hg10 mi
1:55 AM72 °FClear.2 mph73%30.04 "Hg10 mi
1:25 AM70 °FClear.7 mph78%30.04 "Hg10 mi
12:55 AM72 °FClear.7 mph73%30.04 "Hg10 mi
12:25 AM72 °FClear.8 mph73%30.04 "Hg10 mi
11:55 PM
Wed, Aug 24
72 °FClear.6 mph73%30.07 "Hg10 mi
11:25 PM70 °FClear.6 mph78%30.07 "Hg10 mi
10:55 PM70 °FClear.6 mph78%30.07 "Hg10 mi
10:25 PM72 °FClear.5 mph73%30.07 "Hg10 mi
9:55 PM73 °FClear.5 mph69%30.07 "Hg10 mi
9:25 PM75 °FSunny.6 mph61%30.07 "Hg10 mi
8:55 PM75 °FSunny.6 mph65%30.07 "Hg10 mi
8:25 PM79 °FSunny.9 mph61%30.07 "Hg10 mi
7:55 PM81 °FSunny.7 mph66%30.07 "Hg10 mi
7:25 PM84 °FSunny.8 mph55%30.07 "Hg10 mi
Weather by CustomWeather, © 2016

See weather overviewHow to use our weather pages